Location: Newark
(48.0000°N, 67.0000°E)
Time: 18:58:43
(UTC+00:00)

S-56A Canister/Altair - Visible Passes

Search period start: 25 February 2020 00:00
Search period end: 06 March 2020 00:00
Orbit: 633 x 2500 km, 38.9° (Epoch: 25 February)

Date Brightness Start Highest point End Pass type
(mag) Time Alt. Az. Time Alt. Az. Time Alt. Az.
29 Feb 11.9 01:44:28 10° SE 01:47:14 11° ESE 01:50:11 10° ESE visible
04 Mar 11.2 01:31:15 10° S 01:37:58 20° SE 01:46:10 10° E visible
05 Mar 11.2 00:59:46 10° SSE 01:05:13 16° SE 01:11:41 10° E visible
